Regional Weather Roundup
Issued by NWS

Home | Current Version | Previous Version | Graphics & Text | Print | Product List | Glossary On
Versions: 1 2 3 4 5 6 7 8 9 10 11 12 13 14 15 16 17 18 19 20 21 22 23 24 25 26 27 28 29 30 31 32 33 34 35 36 37 38 39 40 41 42 43 44 45 46 47 48 49 50
000
ASUS43 KLOT 052300
RWRIL

ILLINOIS REGIONAL WEATHER ROUNDUP
NATIONAL WEATHER SERVICE CHICAGO/ROMEOVILLE IL
600 PM CDT TUE MAY 05 2015

NOTE: "FAIR" INDICATES FEW OR NO CLOUDS BELOW 12,000 FEET WITH NO
SIGNIFICANT WEATHER AND/OR OBSTRUCTIONS TO VISIBILITY.

* THESE STATIONS ARE NOT UNDER NWS QUALITY CONTROL. THEY ALSO MAY NOT
  REPORT WEATHER SUCH AS PRECIPITATION OR FOG.

ILZ001-002-007-009-015-016-024-060000-
NORTHWEST ILLINOIS

CITY           SKY/WX    TMP DP  RH WIND       PRES   REMARKS
MOLINE         PTSUNNY   68  62  81 NE13      30.10F HAZE
STERLING*      CLOUDY    63  57  82 NE13      30.15F
$$

ILZ003-004-008-010-011-017-018-060000-
NORTH CENTRAL ILLINOIS

CITY           SKY/WX    TMP DP  RH WIND       PRES   REMARKS
ROCKFORD       CLOUDY    56  50  80 E10       30.20S
$$

ILZ005-006-012>014-019>023-060000-
NORTHEAST ILLINOIS

CITY           SKY/WX    TMP DP  RH WIND       PRES   REMARKS
CHICAGO-OHARE  CLOUDY    49  47  93 NE9       30.20S FOG
CHICAGO-MIDWAY CLOUDY    54  50  86 NE8       30.20S FOG
AURORA         PTSUNNY   59  51  75 NE13      30.18S
WAUKEGAN       CLOUDY    46  45  96 NE7       30.22F
DUPAGE AIRPORT CLOUDY    54  50  86 NE12      30.19R
WHEELING       CLOUDY    48  46  93 NE7       30.23S FOG
NORTHERLY ISL    N/A     46  45  96 MISG        N/A
$$

LMZ740>746-060000-
SOUTHERN LAKE MICHIGAN

STATION/POSITION SKY/WX   TEMP    WIND        PRES    VSBY  WAVE
                          AIR SEA DIR/SP/G                  HT/PER
                          (F)     (DEG/KT/KT) (MB)    (MI)  (FT/S)
HARRISON CRIB              44     350/ 14/ 15   N/A
BURNHAM HARBOR             47     360/ 11/ 13   N/A
CALUMET HARBOR             47     330/ 10/ 13   N/A
BURNS HARBOR               51      30/  7/  9 1022.4S
MICHIGAN CITY              53      20/ 13/ 14   N/A
MICHIGAN CITY 6N           51 50   50/ 10/ 14   N/A           2/ 4
ST. JOSEPH                 54 49  100/ 12/ 14   N/A           2/ 3
$$

ILZ025>027-034>036-040-047-049-050-058-095>099-060000-
WEST-CENTRAL ILLINOIS

CITY           SKY/WX    TMP DP  RH WIND       PRES   REMARKS
QUINCY         MOSUNNY   81  50  33 S9        30.06F HX  80
$$

ILZ028>032-037-038-041>044-048-051>054-059>061-060000-
CENTRAL ILLINOIS

CITY           SKY/WX    TMP DP  RH WIND       PRES   REMARKS
DECATUR        MOSUNNY   83  50  31 SW12      30.10S HX  81
PEORIA         MOSUNNY   77  61  57 NE9       30.10S
SPRINGFIELD    MOSUNNY   85  51  31 SW9       30.08F HX  83
TAYLORVILLE    NOT AVBL
$$

ILZ033-039-045-046-055>057-062-063-060000-
EAST-CENTRAL ILLINOIS

CITY           SKY/WX    TMP DP  RH WIND       PRES   REMARKS
CHAMPAIGN      PTSUNNY   84  49  29 SW16      30.10S HX  82
MATTOON        MOSUNNY   81  52  36 S13       30.11S HX  80
$$

ILZ079-100>102-060000-
SOUTHWEST ILLINOIS

CITY           SKY/WX    TMP DP  RH WIND       PRES   REMARKS
ALTON          MOSUNNY   79  55  44 S10       30.11F
CAHOKIA*       MOSUNNY   83  57  41 VRB5      30.09F HX  82
SPARTA*        PTSUNNY   81  61  50 S10       30.13R HX  81
$$

ILZ064>066-069>071-074>076-080>082-084>086-088>090-092>094-060000-
SOUTH-CENTRAL ILLINOIS

CITY           SKY/WX    TMP DP  RH WIND       PRES   REMARKS
CARBONDALE     PTSUNNY   76  59  55 SW12      30.13S
MARION         PTSUNNY   79  61  53 S8        30.14F HX  80
MT. VERNON     SUNNY    N/A N/A N/A S14       30.13S
$$

ILZ067-068-072-073-078-083-087-091-060000-
SOUTHEAST ILLINOIS

CITY           SKY/WX    TMP DP  RH WIND       PRES   REMARKS
LAWRENCEVILLE  SUNNY     84  52  33 S14       30.13S HX  82
$$

ABBREVIATIONS USED IN REMARKS
   TC - TEMPERATURE IN CELSIUS
  WCI - WIND CHILL INDEX
   HX - HEAT INDEX
  VSB - VISIBILITY
$$



USA.gov is the U.S. government's official web portal to all federal, state and local government web resources and services.